Vertical_Velocity
0 1 3 1 1 3 1 0 2 2 0 2 3 2 -0 1 1 -1 1 -3 -2 0 -0 -0 2 3 2 1 3 2 3 2 4 2 3 -1 1 0 1 0 2 1 4 1 3 2 1
4 3 -0 2 1 3 3 1 3 3 2 0 0 0 1 0 1 -1 -1 0 0 -0 1 1 2 2 2 1 0 2 2 3 2 2 3 2 1 3 3 3 3 3 4 1 2 2 -0
4 5 4 2 1 2 3 -0 1 3 1 -0 1 1 1 -0 0 1 2 1 -0 2 2 0 3 1 -0 3 2 2 2 2 2 2 2 1 2 2 4 1 2 1 2 0 2 1 -1
3 2 3 2 1 1 1 4 1 -3 4 3 2 2 2 -0 1 2 1 3 1 2 2 1 1 1 1 2 2 0 1 1 1 2 2 2 2 4 4 5 1 1 1 1 2 2 -2
2 3 2 4 0 -1 2 2 2 3 -1 5 2 4 2 1 1 2 1 1 2 2 2 2 1 0 1 2 0 0 1 2 3 2 1 0 1 4 3 3 1 1 1 1 2 1 -0
2 4 1 2 -0 -2 -0 1 2 -1 2 1 4 1 8 -0 0 1 1 2 3 1 2 2 0 -1 1 3 -0 1 1 2 3 1 2 2 3 1 1 3 6 1 1 4 1 2 -4
-1 -0 0 -1 0 1 1 -1 1 3 -1 1 2 2 2 10 -2 1 1 1 2 2 0 1 1 1 -1 0 0 2 2 1 -1 2 3 1 -2 6 -0 1 -4 3 3 3 2 -1 -0
1 3 2 -2 1 1 -0 -0 1 0 -0 2 -3 3 1 3 8 -2 2 2 0 4 1 1 1 -0 1 1 0 2 1 1 2 4 1 0 8 -3 1 2 4 3 3 5 0 3 -4
1 1 0 1 -1 1 0 1 0 -0 -1 2 2 0 2 -1 1 6 -0 5 1 1 -1 0 1 1 0 1 2 1 1 2 1 0 2 2 -1 0 2 1 2 3 6 -1 -3 5 -1
-2 -1 1 1 1 -2 -1 2 -1 1 1 1 1 -0 2 1 1 1 4 9 8 -1 -1 1 -0 0 -1 1 -1 -0 1 1 -0 3 1 -1 3 1 2 3 0 3 2 -2 1 4 7
-0 -2 -1 0 2 -1 1 2 1 2 1 1 2 -5 -0 2 2 2 -1 4 5 3 -3 3 0 5 3 -3 10 1 2 1 1 0 0 0 -1 0 1 3 1 -4 12 0 2 5 -5
-8 -4 1 -1 -2 1 2 3 2 0 -0 0 1 1 1 2 2 2 1 1 5 1 -8 -5 3 1 0 2 3 2 0 2 6 2 3 -5 3 1 2 4 0 8 3 6 3 0 -18
1 -2 -2 0 -3 -1 1 1 1 -0 -2 -1 2 2 0 1 3 2 1 5 -4 -5 4 -2 3 0 3 4 2 2 5 3 1 1 4 3 -2 5 1 1 1 3 4 -1 -2 -8 3
-1 -1 -1 2 -2 -1 -1 2 -1 0 -1 -1 1 1 3 5 3 2 3 0 -4 3 -2 2 5 3 2 6 5 4 2 3 1 2 3 1 -1 3 6 0 3 7 1 4 -3 -3 16
0 2 -3 1 1 1 -1 1 -1 -1 1 1 1 -1 -0 4 3 2 1 -2 -3 4 7 1 1 -0 2 -1 1 2 2 -0 4 4 1 3 -8 -1 1 2 5 3 -0 4 4 4 -1
-1 -2 -1 -2 0 2 1 -1 2 0 -1 -1 -1 -0 0 1 11 4 -1 -6 5 6 6 3 -2 0 -1 2 2 0 1 3 2 3 0 -1 -7 -2 2 1 -2 1 4 1 1 -2 -2
-1 -2 0 -2 -2 -2 -0 -2 -1 1 -0 -1 -1 -0 -1 -0 2 6 5 -2 3 4 3 1 2 -4 -6 5 -0 -0 -3 5 2 2 1 5 -1 6 1 2 7 2 -2 2 7 -5 1
-1 -2 -1 1 -1 -1 -1 -0 -1 0 -1 0 -0 -1 2 -1 -2 -1 6 8 5 1 3 1 1 1 -0 1 -0 -0 1 2 2 -0 1 2 -1 -2 1 -0 0 0 -1 2 -1 -4 -0
-3 -1 -1 -1 -1 -1 -1 1 -1 -0 1 1 0 -0 1 2 0 -0 -4 2 1 4 8 10 7 4 7 1 -0 1 3 4 2 2 1 3 -0 -1 -1 -3 -0 -1 3 3 3 2 -3
-3 0 -2 -1 -1 -0 2 -1 0 1 0 0 1 -1 1 0 1 2 -1 4 -2 2 0 -1 2 -0 -1 -2 -1 0 -1 -1 1 1 3 3 3 2 -1 0 3 2 3 2 3 -0 4
-4 -1 -1 -2 -1 0 2 1 0 -0 1 1 2 2 1 3 2 -4 2 -2 -2 -1 -2 -1 -0 0 2 2 4 2 3 2 1 0 1 0 3 1 1 1 2 1 2 3 1 3 -5
-2 -2 -2 -2 -1 -1 1 7 2 2 -0 2 2 2 2 1 0 1 3 2 3 4 5 4 2 3 1 -2 -1 -1 -3 -0 1 2 2 3 2 2 1 2 1 -1 0 2 1 2 -3
-1 -4 -2 -0 -1 0 0 -1 2 3 2 3 3 2 2 3 3 2 3 0 1 -1 -0 2 -2 -0 1 1 2 3 3 2 1 1 2 1 1 3 -7 1 -0 -8 3 0 1 1 -0
-1 -2 -2 -4 -3 -1 -2 -1 2 1 1 2 2 2 3 4 1 2 2 2 2 -0 2 -2 1 3 2 0 1 2 2 1 0 1 0 -0 1 0 -4 0 -8 -2 -2 -0 -1 0 -2
-3 -2 -3 -1 -2 -2 -1 -0 -1 0 -1 1 3 2 2 3 3 3 3 2 0 2 -0 2 1 2 1 1 0 -0 -0 -1 1 -2 -2 1 -0 -3 -6 -0 -4 -4 -1 -3 -5 -3 -2
-5 -1 -2 -2 -3 -2 -3 -2 -1 1 -0 2 -0 -1 1 3 3 3 2 2 2 2 1 0 0 1 -0 -1 1 -2 -4 2 -3 -1 2 0 1 4 -3 1 -10 6 1 -1 -7 5 1
-2 -2 -2 -2 -2 -0 -2 -4 -1 -0 0 1 2 0 1 1 3 2 2 1 1 0 1 -0 -1 -1 2 -0 -0 -3 -2 0 -7 -0 -2 -1 -5 -1 -4 -3 -6 2 -2 -5 1 -5 1
-2 -4 -3 -2 -3 -1 -2 0 0 -2 -2 0 1 2 1 2 1 3 3 2 2 1 -0 1 -0 2 -2 -2 0 2 -2 -1 -2 -1 -3 -1 -2 -0 -3 -1 -3 2 -2 -2 -2 -2 -3
-4 -3 -2 -1 -1 -1 -1 -1 1 -0 2 2 0 2 -1 1 -1 -0 2 2 3 2 2 3 -1 -0 -4 -1 -0 -0 -1 -0 -2 -1 -6 -4 0 1 3 -0 -4 -1 -1 -1 -3 -2 -3
Height
5697 5694 5692 5690 5690 5690 5690 5689 5689 5689 5688 5688 5689 5690 5690 5688 5688 5686 5686 5685 5685 5685 5686 5687 5690 5692 5696 5700 5704 5708 5712 5716 5720 5724 5728 5732 5735 5738 5742 5746 5750 5753 5757 5760 5763 5765 5767
5688 5685 5684 5683 5682 5682 5683 5683 5683 5683 5683 5684 5684 5685 5685 5685 5685 5685 5684 5684 5684 5684 5685 5686 5688 5690 5694 5698 5702 5705 5709 5713 5717 5721 5725 5728 5731 5735 5739 5743 5747 5750 5754 5757 5759 5762 5763
5680 5678 5676 5675 5674 5674 5675 5676 5676 5677 5678 5678 5679 5680 5681 5682 5682 5682 5682 5682 5682 5683 5684 5685 5686 5689 5692 5697 5699 5703 5706 5710 5713 5717 5720 5724 5727 5732 5735 5739 5743 5746 5750 5753 5756 5758 5759
5672 5670 5668 5667 5667 5666 5667 5668 5669 5669 5672 5673 5674 5676 5677 5678 5679 5679 5680 5680 5681 5682 5683 5684 5685 5688 5691 5693 5696 5700 5703 5707 5710 5713 5717 5720 5724 5729 5732 5736 5739 5742 5746 5749 5752 5754 5755
5665 5662 5661 5659 5658 5658 5658 5660 5662 5663 5664 5667 5669 5671 5673 5674 5675 5676 5677 5677 5679 5680 5681 5682 5683 5686 5688 5691 5694 5697 5700 5703 5706 5709 5713 5716 5720 5725 5728 5732 5735 5738 5741 5743 5747 5749 5751
5658 5656 5654 5652 5651 5650 5650 5652 5654 5656 5658 5660 5662 5665 5667 5670 5671 5673 5674 5675 5676 5677 5678 5680 5681 5684 5686 5688 5690 5693 5696 5700 5703 5706 5709 5713 5718 5721 5725 5728 5732 5733 5736 5738 5741 5744 5745
5651 5650 5647 5645 5643 5643 5642 5644 5646 5648 5651 5654 5656 5658 5661 5664 5666 5669 5670 5671 5674 5675 5675 5677 5678 5680 5682 5684 5687 5690 5692 5695 5698 5702 5706 5709 5714 5719 5720 5722 5723 5729 5732 5734 5736 5740 5740
5646 5644 5641 5639 5637 5636 5636 5637 5639 5641 5644 5646 5649 5651 5653 5657 5660 5663 5665 5667 5668 5671 5671 5673 5674 5676 5679 5681 5683 5686 5689 5692 5695 5699 5702 5706 5711 5712 5714 5718 5721 5724 5728 5730 5731 5734 5734
5642 5640 5638 5635 5633 5631 5631 5631 5632 5634 5637 5639 5642 5645 5646 5648 5652 5655 5658 5661 5663 5665 5667 5669 5671 5672 5675 5677 5680 5682 5685 5688 5690 5694 5697 5701 5705 5707 5710 5713 5716 5719 5722 5724 5725 5728 5728
5638 5636 5634 5632 5629 5627 5627 5626 5626 5627 5629 5632 5634 5637 5641 5643 5646 5648 5651 5653 5655 5658 5660 5664 5666 5668 5671 5673 5675 5678 5681 5684 5687 5690 5692 5695 5699 5702 5704 5707 5710 5713 5715 5717 5719 5722 5724
5634 5632 5629 5628 5626 5623 5622 5622 5621 5622 5623 5625 5626 5628 5632 5637 5639 5642 5644 5644 5648 5650 5653 5658 5660 5664 5666 5668 5674 5674 5677 5679 5681 5684 5688 5690 5693 5695 5698 5700 5702 5705 5709 5710 5711 5713 5714
5629 5627 5624 5622 5621 5619 5618 5618 5617 5617 5617 5619 5620 5622 5625 5628 5632 5634 5637 5638 5640 5643 5641 5649 5654 5657 5660 5663 5666 5669 5671 5674 5676 5678 5681 5682 5687 5689 5691 5693 5695 5698 5700 5702 5703 5703 5703
5623 5620 5618 5616 5615 5614 5613 5612 5613 5613 5613 5613 5614 5615 5618 5620 5624 5626 5629 5632 5634 5631 5640 5644 5648 5650 5653 5657 5660 5662 5665 5667 5669 5672 5674 5676 5678 5681 5683 5685 5687 5689 5691 5692 5693 5692 5696
5618 5616 5613 5611 5610 5609 5608 5607 5608 5608 5608 5608 5609 5609 5610 5612 5613 5617 5621 5624 5626 5629 5632 5638 5642 5645 5647 5650 5653 5655 5657 5659 5661 5664 5666 5667 5670 5672 5676 5677 5679 5681 5681 5683 5682 5683 5686
5612 5611 5609 5608 5606 5605 5604 5603 5603 5603 5603 5603 5602 5603 5604 5604 5605 5607 5612 5614 5616 5621 5627 5630 5634 5636 5639 5642 5645 5647 5649 5652 5654 5656 5659 5660 5660 5664 5666 5668 5670 5671 5671 5674 5674 5674 5673
5605 5604 5604 5604 5603 5602 5601 5600 5599 5598 5597 5597 5597 5597 5598 5598 5599 5599 5601 5604 5608 5615 5619 5621 5623 5627 5630 5634 5636 5638 5640 5643 5646 5648 5649 5651 5652 5655 5657 5659 5660 5661 5664 5664 5663 5663 5662
5598 5596 5597 5597 5597 5597 5596 5595 5594 5593 5592 5592 5591 5591 5591 5591 5591 5592 5594 5595 5602 5607 5610 5614 5616 5618 5621 5625 5627 5629 5631 5635 5637 5639 5640 5642 5643 5647 5647 5649 5651 5653 5652 5652 5652 5651 5650
5592 5590 5588 5589 5590 5591 5590 5590 5589 5588 5588 5587 5586 5586 5586 5585 5586 5584 5585 5587 5592 5596 5600 5604 5607 5610 5613 5616 5617 5620 5622 5625 5627 5628 5630 5632 5633 5633 5637 5638 5639 5640 5640 5640 5639 5640 5639
5588 5584 5582 5581 5581 5582 5583 5584 5584 5585 5583 5583 5583 5583 5584 5584 5583 5582 5580 5580 5583 5586 5590 5594 5598 5602 5604 5606 5608 5610 5612 5615 5616 5618 5619 5621 5622 5623 5624 5627 5628 5629 5630 5630 5629 5629 5627
5585 5582 5578 5576 5575 5574 5576 5577 5579 5580 5579 5579 5580 5581 5581 5581 5582 5582 5581 5581 5581 5584 5585 5588 5591 5593 5596 5598 5600 5602 5604 5607 5609 5611 5612 5613 5615 5616 5617 5617 5619 5619 5619 5618 5617 5616 5615
5584 5579 5576 5573 5571 5569 5571 5572 5573 5573 5574 5575 5576 5577 5577 5578 5579 5579 5580 5580 5580 5581 5583 5585 5587 5589 5591 5593 5594 5596 5598 5600 5602 5603 5604 5605 5606 5606 5607 5607 5607 5607 5607 5606 5605 5604 5601
5584 5578 5574 5571 5569 5567 5567 5567 5568 5569 5569 5570 5571 5572 5573 5574 5574 5575 5576 5576 5577 5579 5581 5582 5583 5584 5585 5586 5588 5589 5591 5592 5593 5594 5595 5596 5596 5596 5596 5596 5596 5595 5594 5593 5591 5589 5586
5582 5578 5574 5570 5568 5565 5563 5563 5563 5564 5564 5565 5566 5567 5567 5568 5569 5570 5571 5572 5573 5574 5575 5576 5576 5578 5579 5580 5582 5582 5583 5584 5585 5586 5586 5587 5586 5586 5585 5584 5583 5583 5582 5579 5577 5573 5570
5580 5576 5572 5569 5566 5563 5561 5558 5557 5557 5558 5559 5560 5560 5561 5562 5563 5563 5564 5565 5566 5568 5569 5569 5570 5571 5572 5573 5573 5574 5575 5575 5576 5577 5577 5577 5576 5574 5572 5571 5569 5568 5565 5563 5560 5556 5552
5578 5575 5570 5567 5564 5561 5559 5556 5554 5553 5552 5552 5552 5553 5554 5554 5555 5556 5556 5557 5559 5559 5560 5561 5562 5563 5563 5564 5565 5565 5566 5566 5566 5566 5566 5565 5563 5561 5559 5557 5555 5553 5550 5546 5542 5539 5533
5578 5573 5569 5564 5560 5557 5554 5552 5549 5548 5546 5546 5545 5544 5545 5546 5546 5547 5547 5548 5549 5550 5551 5552 5553 5554 5555 5555 5555 5555 5556 5556 5556 5555 5555 5553 5551 5550 5547 5543 5540 5538 5534 5529 5524 5522 5515
5574 5569 5565 5561 5557 5553 5549 5546 5543 5541 5539 5538 5537 5536 5536 5536 5536 5537 5538 5539 5540 5541 5542 5542 5543 5544 5544 5545 5545 5546 5546 5545 5544 5543 5542 5540 5538 5536 5532 5528 5526 5522 5517 5513 5510 5507 5497
5568 5563 5558 5554 5550 5545 5541 5538 5535 5532 5530 5528 5527 5526 5525 5525 5526 5526 5527 5528 5529 5530 5531 5532 5533 5534 5534 5534 5535 5534 5534 5533 5532 5531 5529 5528 5525 5522 5517 5514 5512 5506 5501 5497 5491 5484 5479
5561 5556 5550 5545 5540 5535 5531 5527 5523 5519 5516 5515 5514 5513 5512 5513 5513 5514 5515 5516 5518 5518 5520 5520 5521 5522 5522 5522 5523 5522 5522 5521 5520 5519 5516 5514 5511 5508 5505 5499 5493 5488 5483 5478 5473 5468 5464